Погода в Колимбии

Греция     36°15′26″N   28°08′39″E
темп.,
°C
ветер,
м/с
пор.,
м/с
влажн.,
%
обл.,
%
осадки,
мм/ч
давл.,
гПа
погр.,
м
20 сентября, пн
пн2000:00+27сз47570 0.0 101496
03:00+26сз34620 0.0 101466
06:00+26зсз22580 0.0 101449
09:00+27сз12560 0.0 101581
12:00+28юв32510 0.0 1015273
15:00+29в12590 0.0 1013239
18:00+29ссз12580 0.0 101376
21:00+26сз11660 0.0 101337
21 сентября, вт
вт2100:00+25сз23710 0.0 101479
03:00+24зсз33770 0.0 1013128
06:00+24зсз23800 0.0 1013131
09:00+26зсз12690 0.0 1013178
12:00+29зюз13600 0.0 1013189
15:00+31сз46505 0.0 1012154
18:00+29зсз10145410 0.0 1011328
21:00+26зсз713655 0.0 1012299
22 сентября, ср
ср2200:00+25зсз814729 0.0 1011363
03:00+25зсз8157373 0.0 1010479
06:00+24зсз813751 0.0 1010392
09:00+26зсз811628 0.0 1009652
12:00+27сз912527 0.0 1009698
15:00+28зсз1013500 0.0 1007536
18:00+26зсз1216580 0.0 1007594
21:00+25зсз1116580 0.0 1007742
23 сентября, чт
чт2300:00+24зсз1015590 0.0 1007601
03:00+24зсз1115590 0.0 1006715
06:00+24сз1115580 0.0 1006845
09:00+24сз1114543 0.0 1007984
12:00+25сз1113475 0.0 10071401
15:00+24сз1314450 0.0 10071288
18:00+23сз1516460 0.0 10071034
21:00+22сз1314510 0.0 10081123
24 сентября, пт
пт2400:00+20сз1313570 0.0 1010887
03:00+20ссз1112540 0.0 1010867
06:00+20ссз911540 0.0 1010836
09:00+20ссз88520 0.0 1012856
12:00+21ссз76460 0.0 1013834
15:00+25сз66340 0.0 1012933
18:00+25зсз67350 0.0 1012623
21:00+22з47480 0.0 1014350